Time,TemperatureF,DewpointF,PressureIn,WindDirection,WindDirectionDegrees,WindSpeedMPH,WindSpeedGustMPH,Humidity,HourlyPrecipIn,Conditions,Clouds,dailyrainin,SoftwareType,DateUTC
2013-08-22 00:01:00,70.2,66.8,30.03,ENE,64,0.0,1.0,89,0.00,,,0.00,WUHU216DAVISVP2,2013-08-22 05:01:00,
2013-08-22 00:06:00,70.2,66.8,30.02,ENE,64,0.0,0.0,89,0.00,,,0.00,WUHU216DAVISVP2,2013-08-22 05:06:00,
2013-08-22 00:11:00,70.2,66.8,30.02,ENE,64,0.0,0.0,89,0.00,,,0.00,WUHU216DAVISVP2,2013-08-22 05:11:00,
2013-08-22 00:16:00,70.1,67.0,30.03,ENE,64,0.0,0.0,90,0.00,,,0.00,WUHU216DAVISVP2,2013-08-22 05:16:00,
2013-08-22 00:21:00,70.0,66.9,30.02,ENE,64,0.0,0.0,90,0.00,,,0.00,WUHU216DAVISVP2,2013-08-22 05:21:00,
2013-08-22 00:26:00,69.9,66.8,30.02,ENE,64,0.0,0.0,90,0.00,,,0.00,WUHU216DAVISVP2,2013-08-22 05:26:00,
2013-08-22 00:31:00,69.8,66.7,30.02,ENE,64,0.0,0.0,90,0.00,,,0.00,WUHU216DAVISVP2,2013-08-22 05:31:00,
2013-08-22 00:36:00,69.8,66.7,30.02,ENE,64,0.0,0.0,90,0.00,,,0.00,WUHU216DAVISVP2,2013-08-22 05:36:00,
2013-08-22 00:41:00,69.8,66.7,30.02,ENE,64,0.0,0.0,90,0.00,,,0.00,WUHU216DAVISVP2,2013-08-22 05:41:00,
2013-08-22 00:46:00,69.8,66.4,30.02,ENE,64,0.0,0.0,89,0.00,,,0.00,WUHU216DAVISVP2,2013-08-22 05:46:00,
2013-08-22 00:51:00,69.8,66.7,30.02,ENE,64,0.0,0.0,90,0.00,,,0.00,WUHU216DAVISVP2,2013-08-22 05:51:00,
2013-08-22 00:56:00,69.8,66.7,30.02,ENE,64,0.0,0.0,90,0.00,,,0.00,WUHU216DAVISVP2,2013-08-22 05:56:00,
2013-08-22 01:01:00,69.7,66.3,30.02,ENE,64,0.0,0.0,89,0.00,,,0.00,WUHU216DAVISVP2,2013-08-22 06:01:00,
2013-08-22 01:06:00,69.7,66.6,30.02,ENE,64,0.0,0.0,90,0.00,,,0.00,WUHU216DAVISVP2,2013-08-22 06:06:00,
2013-08-22 01:11:00,69.6,66.5,30.02,ENE,64,0.0,0.0,90,0.00,,,0.00,WUHU216DAVISVP2,2013-08-22 06:11:00,
2013-08-22 01:16:00,69.6,66.2,30.03,ENE,64,0.0,0.0,89,0.00,,,0.00,WUHU216DAVISVP2,2013-08-22 06:16:00,
2013-08-22 01:21:00,69.5,66.4,30.03,ENE,64,0.0,0.0,90,0.00,,,0.00,WUHU216DAVISVP2,2013-08-22 06:21:00,
2013-08-22 01:26:00,69.4,66.3,30.03,ENE,64,0.0,0.0,90,0.00,,,0.00,WUHU216DAVISVP2,2013-08-22 06:26:00,
2013-08-22 01:31:00,69.4,66.3,30.03,ENE,64,0.0,0.0,90,0.00,,,0.00,WUHU216DAVISVP2,2013-08-22 06:31:00,
2013-08-22 01:36:00,69.2,66.1,30.03,ENE,64,0.0,0.0,90,0.00,,,0.00,WUHU216DAVISVP2,2013-08-22 06:36:00,
2013-08-22 01:41:00,69.1,66.0,30.03,ENE,64,0.0,0.0,90,0.00,,,0.00,WUHU216DAVISVP2,2013-08-22 06:41:00,
2013-08-22 01:46:00,69.0,66.0,30.03,ENE,64,0.0,0.0,90,0.00,,,0.00,WUHU216DAVISVP2,2013-08-22 06:46:00,
2013-08-22 01:51:00,68.8,66.1,30.03,ENE,64,0.0,0.0,91,0.00,,,0.00,WUHU216DAVISVP2,2013-08-22 06:51:00,
2013-08-22 01:56:00,68.6,65.9,30.03,ENE,64,0.0,0.0,91,0.00,,,0.00,WUHU216DAVISVP2,2013-08-22 06:56:00,
2013-08-22 02:01:00,68.5,65.7,30.03,ENE,64,0.0,0.0,91,0.00,,,0.00,WUHU216DAVISVP2,2013-08-22 07:01:00,
2013-08-22 02:06:00,68.4,65.6,30.03,ENE,64,0.0,0.0,91,0.00,,,0.00,WUHU216DAVISVP2,2013-08-22 07:06:00,
2013-08-22 02:11:00,68.3,65.8,30.03,ENE,64,0.0,0.0,92,0.00,,,0.00,WUHU216DAVISVP2,2013-08-22 07:11:00,
2013-08-22 02:16:00,68.3,65.8,30.03,ENE,64,0.0,0.0,92,0.00,,,0.00,WUHU216DAVISVP2,2013-08-22 07:16:00,
2013-08-22 02:21:00,68.2,65.7,30.03,ENE,64,0.0,0.0,92,0.00,,,0.00,WUHU216DAVISVP2,2013-08-22 07:21:00,
2013-08-22 02:26:00,68.1,65.7,30.03,ENE,64,0.0,0.0,92,0.00,,,0.00,WUHU216DAVISVP2,2013-08-22 07:26:00,
2013-08-22 02:31:00,68.0,65.6,30.03,ENE,64,0.0,0.0,92,0.00,,,0.00,WUHU216DAVISVP2,2013-08-22 07:31:00,
2013-08-22 02:36:00,68.0,65.6,30.03,ENE,64,0.0,0.0,92,0.00,,,0.00,WUHU216DAVISVP2,2013-08-22 07:36:00,
2013-08-22 02:41:00,68.0,65.6,30.03,ENE,64,0.0,0.0,92,0.00,,,0.00,WUHU216DAVISVP2,2013-08-22 07:41:00,
2013-08-22 02:46:00,68.2,65.7,30.03,ENE,64,0.0,0.0,92,0.00,,,0.00,WUHU216DAVISVP2,2013-08-22 07:46:00,
2013-08-22 02:51:00,68.1,65.6,30.03,ENE,64,0.0,0.0,92,0.00,,,0.00,WUHU216DAVISVP2,2013-08-22 07:51:00,
2013-08-22 02:56:00,68.1,65.6,30.03,ENE,64,0.0,0.0,92,0.00,,,0.00,WUHU216DAVISVP2,2013-08-22 07:56:00,
2013-08-22 03:01:00,68.0,65.6,30.03,ENE,64,0.0,0.0,92,0.00,,,0.00,WUHU216DAVISVP2,2013-08-22 08:01:00,
2013-08-22 03:06:00,67.9,65.5,30.03,ENE,64,0.0,0.0,92,0.00,,,0.00,WUHU216DAVISVP2,2013-08-22 08:06:00,
2013-08-22 03:11:00,68.0,65.6,30.03,ENE,64,0.0,0.0,92,0.00,,,0.00,WUHU216DAVISVP2,2013-08-22 08:11:00,
2013-08-22 03:16:00,68.1,65.6,30.03,ENE,64,0.0,0.0,92,0.00,,,0.00,WUHU216DAVISVP2,2013-08-22 08:16:00,
2013-08-22 03:21:00,67.9,65.4,30.03,ENE,64,0.0,0.0,92,0.00,,,0.00,WUHU216DAVISVP2,2013-08-22 08:21:00,
2013-08-22 03:26:00,67.8,65.4,30.03,ENE,64,0.0,0.0,92,0.00,,,0.00,WUHU216DAVISVP2,2013-08-22 08:26:00,
2013-08-22 03:31:00,67.7,65.3,30.03,ENE,64,0.0,0.0,92,0.00,,,0.00,WUHU216DAVISVP2,2013-08-22 08:31:00,
2013-08-22 03:36:00,67.6,65.5,30.03,ENE,64,0.0,0.0,93,0.00,,,0.00,WUHU216DAVISVP2,2013-08-22 08:36:00,
2013-08-22 03:41:00,67.6,65.4,30.03,ENE,64,2.0,2.0,93,0.00,,,0.00,WUHU216DAVISVP2,2013-08-22 08:41:00,
2013-08-22 03:46:00,67.5,65.0,30.03,ENE,64,2.0,4.0,92,0.00,,,0.00,WUHU216DAVISVP2,2013-08-22 08:46:00,
2013-08-22 03:51:00,67.5,65.4,30.03,ENE,64,2.0,4.0,93,0.00,,,0.00,WUHU216DAVISVP2,2013-08-22 08:51:00,
2013-08-22 03:56:00,67.4,65.3,30.03,ENE,64,2.0,4.0,93,0.00,,,0.00,WUHU216DAVISVP2,2013-08-22 08:56:00,
2013-08-22 04:01:00,67.4,65.0,30.03,ENE,64,0.0,4.0,92,0.00,,,0.00,WUHU216DAVISVP2,2013-08-22 09:01:00,
2013-08-22 04:06:00,67.4,65.2,30.03,ENE,64,0.0,4.0,93,0.00,,,0.00,WUHU216DAVISVP2,2013-08-22 09:06:00,
2013-08-22 04:11:00,67.3,65.2,30.02,ENE,64,0.0,3.0,93,0.00,,,0.00,WUHU216DAVISVP2,2013-08-22 09:11:00,
2013-08-22 04:15:00,67.3,65.2,30.02,ENE,64,0.0,3.0,93,0.00,,,0.00,WUHU216DAVISVP2,2013-08-22 09:15:00,
2013-08-22 04:20:00,67.2,65.1,30.02,ENE,64,0.0,3.0,93,0.00,,,0.00,WUHU216DAVISVP2,2013-08-22 09:20:00,
2013-08-22 04:25:00,67.3,65.1,30.03,ENE,64,0.0,3.0,93,0.00,,,0.00,WUHU216DAVISVP2,2013-08-22 09:25:00,
2013-08-22 04:30:00,67.2,65.1,30.02,ENE,64,0.0,3.0,93,0.00,,,0.00,WUHU216DAVISVP2,2013-08-22 09:30:00,
2013-08-22 04:35:00,67.2,65.1,30.02,ENE,64,0.0,0.0,93,0.00,,,0.00,WUHU216DAVISVP2,2013-08-22 09:35:00,
2013-08-22 04:40:00,67.2,65.1,30.02,ENE,64,0.0,0.0,93,0.00,,,0.00,WUHU216DAVISVP2,2013-08-22 09:40:00,
2013-08-22 04:45:00,67.3,65.1,30.02,ENE,64,0.0,0.0,93,0.00,,,0.00,WUHU216DAVISVP2,2013-08-22 09:45:00,
2013-08-22 04:50:00,67.2,65.1,30.02,ENE,64,0.0,0.0,93,0.00,,,0.00,WUHU216DAVISVP2,2013-08-22 09:50:00,
2013-08-22 04:55:00,67.2,65.1,30.02,ENE,64,0.0,0.0,93,0.00,,,0.00,WUHU216DAVISVP2,2013-08-22 09:55:00,
2013-08-22 05:00:00,67.2,65.0,30.02,ENE,64,0.0,0.0,93,0.00,,,0.00,WUHU216DAVISVP2,2013-08-22 10:00:00,
2013-08-22 05:05:00,67.1,65.0,30.02,ENE,64,0.0,0.0,93,0.00,,,0.00,WUHU216DAVISVP2,2013-08-22 10:05:00,
2013-08-22 05:10:00,67.1,65.0,30.03,ENE,64,0.0,0.0,93,0.00,,,0.00,WUHU216DAVISVP2,2013-08-22 10:10:00,
2013-08-22 05:15:00,67.0,64.9,30.02,ENE,64,0.0,0.0,93,0.00,,,0.00,WUHU216DAVISVP2,2013-08-22 10:15:00,
2013-08-22 05:20:00,67.1,65.0,30.02,ENE,64,0.0,0.0,93,0.00,,,0.00,WUHU216DAVISVP2,2013-08-22 10:20:00,
2013-08-22 05:25:00,67.0,65.2,30.03,ENE,64,0.0,0.0,94,0.00,,,0.00,WUHU216DAVISVP2,2013-08-22 10:25:00,
2013-08-22 05:30:00,67.0,65.2,30.03,ENE,64,0.0,0.0,94,0.00,,,0.00,WUHU216DAVISVP2,2013-08-22 10:30:00,
2013-08-22 05:36:00,67.1,65.3,30.03,ENE,64,0.0,0.0,94,0.00,,,0.00,WUHU216DAVISVP2,2013-08-22 10:36:00,
2013-08-22 05:41:00,67.0,65.2,30.03,ENE,64,0.0,0.0,94,0.00,,,0.00,WUHU216DAVISVP2,2013-08-22 10:41:00,
2013-08-22 05:46:00,66.9,65.1,30.03,ENE,64,0.0,0.0,94,0.00,,,0.00,WUHU216DAVISVP2,2013-08-22 10:46:00,
2013-08-22 05:50:00,66.9,64.7,30.03,ENE,64,0.0,0.0,93,0.00,,,0.00,WUHU216DAVISVP2,2013-08-22 10:50:00,
2013-08-22 05:55:00,66.7,64.9,30.04,ENE,64,0.0,0.0,94,0.00,,,0.00,WUHU216DAVISVP2,2013-08-22 10:55:00,
2013-08-22 06:00:00,66.6,64.8,30.04,ENE,64,0.0,0.0,94,0.00,,,0.00,WUHU216DAVISVP2,2013-08-22 11:00:00,
2013-08-22 06:07:00,66.8,65.0,30.04,ENE,64,0.0,0.0,94,0.00,,,0.00,WUHU216DAVISVP2,2013-08-22 11:07:00,
2013-08-22 06:13:00,66.8,65.0,30.04,ENE,64,0.0,0.0,94,0.00,,,0.00,WUHU216DAVISVP2,2013-08-22 11:13:00,
2013-08-22 06:24:00,66.7,64.9,30.04,ENE,64,0.0,0.0,94,0.00,,,0.00,WUHU216DAVISVP2,2013-08-22 11:24:00,
2013-08-22 06:30:00,66.6,64.8,30.04,ENE,64,0.0,0.0,94,0.00,,,0.00,WUHU216DAVISVP2,2013-08-22 11:30:00,
2013-08-22 06:36:00,66.8,65.3,30.04,ENE,64,0.0,0.0,95,0.00,,,0.00,WUHU216DAVISVP2,2013-08-22 11:36:00,
2013-08-22 06:42:00,66.8,65.3,30.04,ENE,64,0.0,0.0,95,0.00,,,0.00,WUHU216DAVISVP2,2013-08-22 11:42:00,
2013-08-22 06:47:00,66.9,65.4,30.04,ENE,64,0.0,0.0,95,0.00,,,0.00,WUHU216DAVISVP2,2013-08-22 11:47:00,
2013-08-22 06:53:00,66.6,64.8,30.04,ENE,64,0.0,0.0,94,0.00,,,0.00,WUHU216DAVISVP2,2013-08-22 11:53:00,
2013-08-22 07:00:00,66.8,65.2,30.05,ENE,64,0.0,0.0,95,0.00,,,0.00,WUHU216DAVISVP2,2013-08-22 12:00:00,
2013-08-22 07:06:00,66.9,65.4,30.05,ENE,64,0.0,0.0,95,0.00,,,0.00,WUHU216DAVISVP2,2013-08-22 12:06:00,
2013-08-22 07:12:00,67.1,65.6,30.05,ENE,64,0.0,0.0,95,0.00,,,0.00,WUHU216DAVISVP2,2013-08-22 12:12:00,
2013-08-22 07:16:00,67.4,65.9,30.06,ENE,64,0.0,0.0,95,0.00,,,0.00,WUHU216DAVISVP2,2013-08-22 12:16:00,
2013-08-22 07:27:00,67.9,66.3,30.06,ENE,64,0.0,0.0,95,0.00,,,0.00,WUHU216DAVISVP2,2013-08-22 12:27:00,
2013-08-22 07:32:00,68.2,66.7,30.06,ENE,64,0.0,0.0,95,0.00,,,0.00,WUHU216DAVISVP2,2013-08-22 12:32:00,
2013-08-22 07:37:00,68.4,66.6,30.06,ENE,64,0.0,0.0,94,0.00,,,0.00,WUHU216DAVISVP2,2013-08-22 12:37:00,
2013-08-22 07:42:00,68.8,66.9,30.07,ENE,64,0.0,0.0,94,0.00,,,0.00,WUHU216DAVISVP2,2013-08-22 12:42:00,
2013-08-22 07:47:00,69.1,67.3,30.07,ENE,64,0.0,0.0,94,0.00,,,0.00,WUHU216DAVISVP2,2013-08-22 12:47:00,
2013-08-22 07:52:00,69.4,67.6,30.07,ENE,64,0.0,0.0,94,0.00,,,0.00,WUHU216DAVISVP2,2013-08-22 12:52:00,
2013-08-22 07:57:00,69.8,67.6,30.07,ENE,64,0.0,0.0,93,0.00,,,0.00,WUHU216DAVISVP2,2013-08-22 12:57:00,
2013-08-22 08:01:00,70.0,67.8,30.07,ENE,64,0.0,0.0,93,0.00,,,0.00,WUHU216DAVISVP2,2013-08-22 13:01:00,
2013-08-22 08:06:00,70.1,68.0,30.07,ENE,64,0.0,0.0,93,0.00,,,0.00,WUHU216DAVISVP2,2013-08-22 13:06:00,
2013-08-22 08:11:00,70.2,67.8,30.07,ENE,64,0.0,0.0,92,0.00,,,0.00,WUHU216DAVISVP2,2013-08-22 13:11:00,
2013-08-22 08:16:00,70.3,67.8,30.07,ENE,64,0.0,0.0,92,0.00,,,0.00,WUHU216DAVISVP2,2013-08-22 13:16:00,
2013-08-22 08:21:00,70.4,68.0,30.07,ENE,64,0.0,0.0,92,0.00,,,0.00,WUHU216DAVISVP2,2013-08-22 13:21:00,
2013-08-22 08:26:00,70.4,67.6,30.07,ENE,64,1.0,2.0,91,0.00,,,0.00,WUHU216DAVISVP2,2013-08-22 13:26:00,
2013-08-22 08:31:00,70.4,67.6,30.07,ENE,64,2.0,3.0,91,0.00,,,0.00,WUHU216DAVISVP2,2013-08-22 13:31:00,
2013-08-22 08:36:00,70.5,67.4,30.07,ENE,64,2.0,4.0,90,0.00,,,0.00,WUHU216DAVISVP2,2013-08-22 13:36:00,
2013-08-22 08:41:00,70.5,67.4,30.07,ENE,64,1.0,5.0,90,0.00,,,0.00,WUHU216DAVISVP2,2013-08-22 13:41:00,
2013-08-22 08:46:00,70.7,67.6,30.07,ENE,64,2.0,5.0,90,0.00,,,0.00,WUHU216DAVISVP2,2013-08-22 13:46:00,
2013-08-22 08:51:00,70.8,67.7,30.07,ENE,64,1.0,5.0,90,0.00,,,0.00,WUHU216DAVISVP2,2013-08-22 13:51:00,
2013-08-22 08:56:00,71.2,67.7,30.07,ENE,64,0.0,5.0,89,0.00,,,0.00,WUHU216DAVISVP2,2013-08-22 13:56:00,
2013-08-22 09:01:00,71.6,68.2,30.07,ENE,64,0.0,3.0,89,0.00,,,0.00,WUHU216DAVISVP2,2013-08-22 14:01:00,
2013-08-22 09:06:00,72.0,67.9,30.07,ENE,64,2.0,4.0,87,0.00,,,0.00,WUHU216DAVISVP2,2013-08-22 14:06:00,
2013-08-22 09:11:00,72.3,67.9,30.07,ENE,64,1.0,4.0,86,0.00,,,0.00,WUHU216DAVISVP2,2013-08-22 14:11:00,
2013-08-22 09:16:00,72.7,67.9,30.07,ENE,64,4.0,4.0,85,0.00,,,0.00,WUHU216DAVISVP2,2013-08-22 14:16:00,
2013-08-22 09:21:00,72.9,67.9,30.07,NE,35,3.0,6.0,84,0.00,,,0.00,WUHU216DAVISVP2,2013-08-22 14:21:00,
2013-08-22 09:26:00,73.1,67.7,30.06,NNE,20,4.0,6.0,83,0.00,,,0.00,WUHU216DAVISVP2,2013-08-22 14:26:00,
2013-08-22 09:31:00,73.4,68.0,30.06,NNE,20,1.0,6.0,83,0.00,,,0.00,WUHU216DAVISVP2,2013-08-22 14:31:00,
2013-08-22 09:36:00,73.8,68.0,30.06,NNE,20,1.0,6.0,82,0.00,,,0.00,WUHU216DAVISVP2,2013-08-22 14:36:00,
2013-08-22 09:41:00,74.2,68.7,30.06,NNE,20,0.0,5.0,83,0.00,,,0.00,WUHU216DAVISVP2,2013-08-22 14:41:00,
2013-08-22 09:46:00,74.3,68.6,30.06,NNE,20,0.0,5.0,82,0.00,,,0.00,WUHU216DAVISVP2,2013-08-22 14:46:00,
2013-08-22 09:51:00,74.3,67.8,30.06,NNE,29,2.0,5.0,80,0.00,,,0.00,WUHU216DAVISVP2,2013-08-22 14:51:00,
2013-08-22 09:56:00,74.3,67.8,30.06,North,9,0.0,5.0,80,0.00,,,0.00,WUHU216DAVISVP2,2013-08-22 14:56:00,
2013-08-22 10:01:00,74.5,67.7,30.06,North,9,0.0,5.0,79,0.00,,,0.00,WUHU216DAVISVP2,2013-08-22 15:01:00,
2013-08-22 10:06:00,74.6,67.4,30.06,NNE,20,1.0,5.0,78,0.00,,,0.00,WUHU216DAVISVP2,2013-08-22 15:06:00,
2013-08-22 10:11:00,74.8,67.6,30.06,North,4,4.0,6.0,78,0.00,,,0.00,WUHU216DAVISVP2,2013-08-22 15:11:00,
2013-08-22 10:16:00,75.2,67.6,30.06,North,4,1.0,6.0,77,0.00,,,0.00,WUHU216DAVISVP2,2013-08-22 15:16:00,
2013-08-22 10:21:00,75.6,68.0,30.06,North,5,3.0,6.0,77,0.00,,,0.00,WUHU216DAVISVP2,2013-08-22 15:21:00,
2013-08-22 10:26:00,75.9,68.0,30.05,North,1,1.0,6.0,76,0.00,,,0.00,WUHU216DAVISVP2,2013-08-22 15:26:00,
2013-08-22 10:31:00,75.9,68.0,30.05,North,6,0.0,6.0,76,0.00,,,0.00,WUHU216DAVISVP2,2013-08-22 15:31:00,
2013-08-22 10:36:00,75.9,67.6,30.05,North,11,3.0,6.0,75,0.00,,,0.00,WUHU216DAVISVP2,2013-08-22 15:36:00,
2013-08-22 10:41:00,76.0,67.7,30.06,North,10,0.0,6.0,75,0.00,,,0.00,WUHU216DAVISVP2,2013-08-22 15:41:00,
2013-08-22 10:46:00,76.2,68.6,30.06,NNE,25,2.0,5.0,77,0.00,,,0.00,WUHU216DAVISVP2,2013-08-22 15:46:00,
2013-08-22 10:51:00,76.3,67.6,30.06,NE,37,0.0,5.0,74,0.00,,,0.00,WUHU216DAVISVP2,2013-08-22 15:51:00,
2013-08-22 10:56:00,76.4,68.4,30.06,NE,37,0.0,5.0,76,0.00,,,0.00,WUHU216DAVISVP2,2013-08-22 15:56:00,
2013-08-22 11:01:00,76.7,67.6,30.06,NNE,33,2.0,6.0,73,0.00,,,0.00,WUHU216DAVISVP2,2013-08-22 16:01:00,
2013-08-22 11:06:00,76.7,67.2,30.06,NE,37,1.0,6.0,72,0.00,,,0.00,WUHU216DAVISVP2,2013-08-22 16:06:00,
2013-08-22 11:11:00,76.8,66.5,30.06,NE,48,4.0,6.0,70,0.00,,,0.00,WUHU216DAVISVP2,2013-08-22 16:11:00,
2013-08-22 11:16:00,76.9,66.9,30.06,NE,50,2.0,6.0,71,0.00,,,0.00,WUHU216DAVISVP2,2013-08-22 16:16:00,
2013-08-22 11:21:00,76.8,66.9,30.06,ENE,71,0.0,5.0,71,0.00,,,0.00,WUHU216DAVISVP2,2013-08-22 16:21:00,
2013-08-22 11:26:00,77.1,66.4,30.06,East,90,3.0,7.0,69,0.00,,,0.00,WUHU216DAVISVP2,2013-08-22 16:26:00,
2013-08-22 11:31:00,77.1,66.4,30.06,ENE,78,0.0,8.0,69,0.00,,,0.00,WUHU216DAVISVP2,2013-08-22 16:31:00,
2013-08-22 11:36:00,77.3,66.5,30.06,ENE,77,0.0,8.0,69,0.00,,,0.00,WUHU216DAVISVP2,2013-08-22 16:36:00,
2013-08-22 11:41:00,77.5,66.3,30.05,East,79,3.0,8.0,68,0.00,,,0.00,WUHU216DAVISVP2,2013-08-22 16:41:00,
2013-08-22 11:46:00,77.8,66.2,30.05,East,87,5.0,5.0,67,0.00,,,0.00,WUHU216DAVISVP2,2013-08-22 16:46:00,
2013-08-22 11:51:00,78.0,65.9,30.05,East,81,3.0,8.0,66,0.00,,,0.00,WUHU216DAVISVP2,2013-08-22 16:51:00,
2013-08-22 11:56:00,77.9,66.3,30.05,East,82,0.0,8.0,67,0.00,,,0.00,WUHU216DAVISVP2,2013-08-22 16:56:00,
2013-08-22 12:01:00,77.9,65.4,30.05,East,82,4.0,8.0,65,0.00,,,0.00,WUHU216DAVISVP2,2013-08-22 17:01:00,
2013-08-22 12:06:00,77.9,65.0,30.05,East,83,0.0,5.0,64,0.00,,,0.00,WUHU216DAVISVP2,2013-08-22 17:06:00,
2013-08-22 12:11:00,78.2,65.7,30.05,ENE,77,7.0,7.0,65,0.00,,,0.00,WUHU216DAVISVP2,2013-08-22 17:11:00,
2013-08-22 12:16:00,78.2,65.7,30.04,East,91,4.0,8.0,65,0.00,,,0.00,WUHU216DAVISVP2,2013-08-22 17:16:00,
2013-08-22 12:21:00,78.1,65.2,30.04,East,91,2.0,8.0,64,0.00,,,0.00,WUHU216DAVISVP2,2013-08-22 17:21:00,
2013-08-22 12:26:00,78.4,65.4,30.04,ENE,72,6.0,8.0,64,0.00,,,0.00,WUHU216DAVISVP2,2013-08-22 17:26:00,
2013-08-22 12:31:00,78.5,65.5,30.04,ENE,71,1.0,8.0,64,0.00,,,0.00,WUHU216DAVISVP2,2013-08-22 17:31:00,
2013-08-22 12:36:00,78.5,66.0,30.04,ENE,66,3.0,7.0,65,0.00,,,0.00,WUHU216DAVISVP2,2013-08-22 17:36:00,
2013-08-22 12:41:00,79.0,66.0,30.03,ENE,66,2.0,7.0,64,0.00,,,0.00,WUHU216DAVISVP2,2013-08-22 17:41:00,
2013-08-22 12:46:00,79.0,65.6,30.03,ENE,66,1.0,7.0,63,0.00,,,0.00,WUHU216DAVISVP2,2013-08-22 17:46:00,
2013-08-22 12:51:00,79.3,66.3,30.03,ENE,61,1.0,6.0,64,0.00,,,0.00,WUHU216DAVISVP2,2013-08-22 17:51:00,
2013-08-22 12:56:00,79.5,66.0,30.03,ENE,69,0.0,6.0,63,0.00,,,0.00,WUHU216DAVISVP2,2013-08-22 17:56:00,
2013-08-22 13:01:00,79.7,66.7,30.03,ENE,63,2.0,6.0,64,0.00,,,0.00,WUHU216DAVISVP2,2013-08-22 18:01:00,
2013-08-22 13:06:00,80.2,63.8,30.03,East,101,7.0,7.0,57,0.00,,,0.00,WUHU216DAVISVP2,2013-08-22 18:06:00,
2013-08-22 13:11:00,80.2,62.2,30.02,East,84,5.0,7.0,54,0.00,,,0.00,WUHU216DAVISVP2,2013-08-22 18:11:00,
2013-08-22 13:16:00,80.1,63.2,30.03,East,81,3.0,7.0,56,0.00,,,0.00,WUHU216DAVISVP2,2013-08-22 18:16:00,
2013-08-22 13:21:00,80.2,63.8,30.03,East,81,0.0,7.0,57,0.00,,,0.00,WUHU216DAVISVP2,2013-08-22 18:21:00,
2013-08-22 13:26:00,80.5,64.5,30.02,East,81,0.0,6.0,58,0.00,,,0.00,WUHU216DAVISVP2,2013-08-22 18:26:00,
2013-08-22 13:31:00,80.7,64.2,30.02,East,81,0.0,5.0,57,0.00,,,0.00,WUHU216DAVISVP2,2013-08-22 18:31:00,
2013-08-22 13:36:00,81.1,63.1,30.02,SE,130,4.0,8.0,54,0.00,,,0.00,WUHU216DAVISVP2,2013-08-22 18:36:00,
2013-08-22 13:41:00,81.5,62.9,30.02,SE,146,2.0,8.0,53,0.00,,,0.00,WUHU216DAVISVP2,2013-08-22 18:41:00,
2013-08-22 13:46:00,81.8,64.2,30.02,South,173,2.0,8.0,55,0.00,,,0.00,WUHU216DAVISVP2,2013-08-22 18:46:00,
2013-08-22 13:51:00,81.8,63.2,30.02,South,177,3.0,8.0,53,0.00,,,0.00,WUHU216DAVISVP2,2013-08-22 18:51:00,
2013-08-22 13:56:00,82.1,64.5,30.01,SE,127,4.0,7.0,55,0.00,,,0.00,WUHU216DAVISVP2,2013-08-22 18:56:00,
2013-08-22 14:01:00,81.4,63.9,30.01,ESE,112,5.0,9.0,55,0.00,,,0.00,WUHU216DAVISVP2,2013-08-22 19:01:00,
2013-08-22 14:06:00,81.2,63.1,30.01,ESE,118,3.0,9.0,54,0.00,,,0.00,WUHU216DAVISVP2,2013-08-22 19:06:00,
2013-08-22 14:11:00,81.1,63.6,30.01,ESE,118,1.0,9.0,55,0.00,,,0.00,WUHU216DAVISVP2,2013-08-22 19:11:00,
2013-08-22 14:16:00,81.4,64.9,30.01,SE,126,9.0,9.0,57,0.00,,,0.00,WUHU216DAVISVP2,2013-08-22 19:16:00,
2013-08-22 14:21:00,82.0,63.4,30.01,ESE,106,6.0,10.0,53,0.00,,,0.00,WUHU216DAVISVP2,2013-08-22 19:21:00,
2013-08-22 14:26:00,82.2,64.1,30.01,East,84,4.0,10.0,54,0.00,,,0.00,WUHU216DAVISVP2,2013-08-22 19:26:00,
2013-08-22 14:31:00,82.4,63.1,30.01,ESE,102,5.0,10.0,52,0.00,,,0.00,WUHU216DAVISVP2,2013-08-22 19:31:00,
2013-08-22 14:36:00,82.6,64.0,30.01,ESE,103,5.0,9.0,53,0.00,,,0.00,WUHU216DAVISVP2,2013-08-22 19:36:00,
2013-08-22 14:41:00,82.8,62.4,30.01,ESE,116,2.0,8.0,50,0.00,,,0.00,WUHU216DAVISVP2,2013-08-22 19:41:00,
2013-08-22 14:46:00,83.0,62.6,30.01,ESE,119,3.0,8.0,50,0.00,,,0.00,WUHU216DAVISVP2,2013-08-22 19:46:00,
2013-08-22 14:51:00,83.3,62.8,30.01,ESE,119,1.0,8.0,50,0.00,,,0.00,WUHU216DAVISVP2,2013-08-22 19:51:00,
2013-08-22 14:56:00,83.6,63.1,30.01,ESE,120,0.0,8.0,50,0.00,,,0.00,WUHU216DAVISVP2,2013-08-22 19:56:00,
2013-08-22 15:01:00,83.9,63.4,30.01,SSE,151,5.0,9.0,50,0.00,,,0.00,WUHU216DAVISVP2,2013-08-22 20:01:00,
2013-08-22 15:06:00,83.9,63.4,30.01,SE,141,0.0,9.0,50,0.00,,,0.00,WUHU216DAVISVP2,2013-08-22 20:06:00,
2013-08-22 15:11:00,84.1,63.6,30.01,SE,141,1.0,9.0,50,0.00,,,0.00,WUHU216DAVISVP2,2013-08-22 20:11:00,
2013-08-22 15:16:00,84.3,64.9,30.00,SE,141,0.0,6.0,52,0.00,,,0.00,WUHU216DAVISVP2,2013-08-22 20:16:00,
2013-08-22 15:21:00,84.2,63.7,30.00,ESE,108,3.0,7.0,50,0.00,,,0.00,WUHU216DAVISVP2,2013-08-22 20:21:00,
2013-08-22 15:26:00,84.4,64.4,30.00,ESE,109,6.0,7.0,51,0.00,,,0.00,WUHU216DAVISVP2,2013-08-22 20:26:00,
2013-08-22 15:31:00,84.5,64.5,30.00,ESE,111,0.0,7.0,51,0.00,,,0.00,WUHU216DAVISVP2,2013-08-22 20:31:00,
2013-08-22 15:36:00,85.1,64.5,30.00,ESE,118,6.0,7.0,50,0.00,,,0.00,WUHU216DAVISVP2,2013-08-22 20:36:00,
2013-08-22 15:41:00,85.1,64.5,30.00,ESE,118,3.0,7.0,50,0.00,,,0.00,WUHU216DAVISVP2,2013-08-22 20:41:00,
2013-08-22 15:46:00,84.8,65.4,30.00,ESE,118,0.0,7.0,52,0.00,,,0.00,WUHU216DAVISVP2,2013-08-22 20:46:00,
2013-08-22 15:51:00,85.4,65.9,30.00,ESE,118,2.0,7.0,52,0.00,,,0.00,WUHU216DAVISVP2,2013-08-22 20:51:00,
2013-08-22 15:56:00,85.6,66.1,30.00,ESE,118,0.0,7.0,52,0.00,,,0.00,WUHU216DAVISVP2,2013-08-22 20:56:00,
2013-08-22 16:01:00,85.5,66.0,29.99,ESE,118,0.0,6.0,52,0.00,,,0.00,WUHU216DAVISVP2,2013-08-22 21:01:00,
2013-08-22 16:06:00,85.4,66.0,29.99,ESE,118,5.0,5.0,52,0.00,,,0.00,WUHU216DAVISVP2,2013-08-22 21:06:00,
2013-08-22 16:11:00,85.4,67.0,29.99,ESE,119,2.0,5.0,54,0.00,,,0.00,WUHU216DAVISVP2,2013-08-22 21:11:00,
2013-08-22 16:16:00,85.4,67.1,29.99,SE,131,1.0,5.0,54,0.00,,,0.00,WUHU216DAVISVP2,2013-08-22 21:16:00,
2013-08-22 16:21:00,85.2,65.8,30.00,SE,132,3.0,5.0,52,0.00,,,0.00,WUHU216DAVISVP2,2013-08-22 21:21:00,
2013-08-22 16:26:00,85.3,67.0,29.99,SE,133,3.0,5.0,54,0.00,,,0.00,WUHU216DAVISVP2,2013-08-22 21:26:00,
2013-08-22 16:31:00,85.2,66.3,29.99,SE,133,1.0,5.0,53,0.00,,,0.00,WUHU216DAVISVP2,2013-08-22 21:31:00,
2013-08-22 16:36:00,85.2,66.8,29.99,SE,133,3.0,5.0,54,0.00,,,0.00,WUHU216DAVISVP2,2013-08-22 21:36:00,
2013-08-22 16:41:00,85.2,66.3,29.99,SE,133,0.0,4.0,53,0.00,,,0.00,WUHU216DAVISVP2,2013-08-22 21:41:00,
2013-08-22 16:46:00,85.4,67.1,29.99,SE,135,1.0,5.0,54,0.00,,,0.00,WUHU216DAVISVP2,2013-08-22 21:46:00,
2013-08-22 16:51:00,85.4,66.5,29.99,SE,137,3.0,7.0,53,0.00,,,0.00,WUHU216DAVISVP2,2013-08-22 21:51:00,
2013-08-22 16:56:00,85.4,67.6,29.99,SE,137,3.0,7.0,55,0.00,,,0.00,WUHU216DAVISVP2,2013-08-22 21:56:00,
2013-08-22 17:01:00,85.6,67.8,29.99,SE,137,2.0,7.0,55,0.00,,,0.00,WUHU216DAVISVP2,2013-08-22 22:01:00,
2013-08-22 17:06:00,85.6,67.8,29.99,SE,137,2.0,4.0,55,0.00,,,0.00,WUHU216DAVISVP2,2013-08-22 22:06:00,
2013-08-22 17:11:00,85.8,68.0,29.99,SE,138,0.0,5.0,55,0.00,,,0.00,WUHU216DAVISVP2,2013-08-22 22:11:00,
2013-08-22 17:16:00,86.1,67.8,29.99,SE,138,2.0,5.0,54,0.00,,,0.00,WUHU216DAVISVP2,2013-08-22 22:16:00,
2013-08-22 17:21:00,86.4,67.4,29.99,SE,138,3.0,5.0,53,0.00,,,0.00,WUHU216DAVISVP2,2013-08-22 22:21:00,
2013-08-22 17:26:00,86.3,68.0,29.98,SE,138,0.0,5.0,54,0.00,,,0.00,WUHU216DAVISVP2,2013-08-22 22:26:00,
2013-08-22 17:31:00,86.5,68.1,29.98,SE,143,2.0,4.0,54,0.00,,,0.00,WUHU216DAVISVP2,2013-08-22 22:31:00,
2013-08-22 17:36:00,86.6,68.7,29.98,SSE,156,2.0,4.0,55,0.00,,,0.00,WUHU216DAVISVP2,2013-08-22 22:36:00,
2013-08-22 17:41:00,86.8,68.9,29.98,SSE,156,0.0,4.0,55,0.00,,,0.00,WUHU216DAVISVP2,2013-08-22 22:41:00,
2013-08-22 17:46:00,87.1,70.8,29.98,SSE,156,3.0,4.0,58,0.00,,,0.00,WUHU216DAVISVP2,2013-08-22 22:46:00,
2013-08-22 17:51:00,87.2,68.8,29.98,SSE,157,0.0,4.0,54,0.00,,,0.00,WUHU216DAVISVP2,2013-08-22 22:51:00,
2013-08-22 17:56:00,87.2,69.3,29.98,SSE,157,2.0,4.0,55,0.00,,,0.00,WUHU216DAVISVP2,2013-08-22 22:56:00,
2013-08-22 18:01:00,87.1,69.2,29.98,SSE,157,0.0,4.0,55,0.00,,,0.00,WUHU216DAVISVP2,2013-08-22 23:01:00,
2013-08-22 18:06:00,87.1,68.6,29.98,WSW,237,0.0,6.0,54,0.00,,,0.00,WUHU216DAVISVP2,2013-08-22 23:06:00,
2013-08-22 18:11:00,87.1,69.2,29.98,WSW,237,2.0,6.0,55,0.00,,,0.00,WUHU216DAVISVP2,2013-08-22 23:11:00,
2013-08-22 18:16:00,87.1,69.2,29.98,WSW,237,0.0,6.0,55,0.00,,,0.00,WUHU216DAVISVP2,2013-08-22 23:16:00,
2013-08-22 18:21:00,87.2,69.9,29.98,WSW,237,0.0,5.0,56,0.00,,,0.00,WUHU216DAVISVP2,2013-08-22 23:21:00,
2013-08-22 18:26:00,87.5,71.2,29.98,WSW,237,2.0,5.0,58,0.00,,,0.00,WUHU216DAVISVP2,2013-08-22 23:26:00,
2013-08-22 18:31:00,87.3,72.0,29.98,WNW,303,2.0,7.0,60,0.00,,,0.00,WUHU216DAVISVP2,2013-08-22 23:31:00,
2013-08-22 18:36:00,86.8,71.1,29.97,NW,307,1.0,8.0,59,0.00,,,0.00,WUHU216DAVISVP2,2013-08-22 23:36:00,
2013-08-22 18:41:00,86.4,70.6,29.98,NW,307,0.0,8.0,59,0.00,,,0.00,WUHU216DAVISVP2,2013-08-22 23:41:00,
2013-08-22 18:46:00,86.1,70.8,29.97,NW,307,2.0,8.0,60,0.00,,,0.00,WUHU216DAVISVP2,2013-08-22 23:46:00,
2013-08-22 18:51:00,85.7,70.5,29.97,NW,307,1.0,8.0,60,0.00,,,0.00,WUHU216DAVISVP2,2013-08-22 23:51:00,
2013-08-22 18:56:00,85.5,70.8,29.97,NW,307,3.0,6.0,61,0.00,,,0.00,WUHU216DAVISVP2,2013-08-22 23:56:00,
2013-08-22 19:01:00,85.1,70.9,29.97,NW,307,0.0,6.0,62,0.00,,,0.00,WUHU216DAVISVP2,2013-08-23 00:01:00,
2013-08-22 19:06:00,84.8,71.1,29.96,NW,307,0.0,6.0,63,0.00,,,0.00,WUHU216DAVISVP2,2013-08-23 00:06:00,
2013-08-22 19:11:00,84.5,72.6,29.96,NW,307,1.0,4.0,67,0.00,,,0.00,WUHU216DAVISVP2,2013-08-23 00:11:00,
2013-08-22 19:16:00,84.0,71.7,29.96,NW,307,0.0,5.0,66,0.00,,,0.00,WUHU216DAVISVP2,2013-08-23 00:16:00,
2013-08-22 19:21:00,83.7,71.4,29.97,NW,307,0.0,5.0,66,0.00,,,0.00,WUHU216DAVISVP2,2013-08-23 00:21:00,
2013-08-22 19:26:00,83.4,71.5,29.97,NW,307,0.0,5.0,67,0.00,,,0.00,WUHU216DAVISVP2,2013-08-23 00:26:00,
2013-08-22 19:31:00,83.0,71.2,29.97,NW,307,0.0,5.0,67,0.00,,,0.00,WUHU216DAVISVP2,2013-08-23 00:31:00,
2013-08-22 19:36:00,82.7,71.3,29.97,NW,307,0.0,4.0,68,0.00,,,0.00,WUHU216DAVISVP2,2013-08-23 00:36:00,
2013-08-22 19:41:00,82.5,71.1,29.97,NW,307,0.0,2.0,68,0.00,,,0.00,WUHU216DAVISVP2,2013-08-23 00:41:00,
2013-08-22 19:46:00,82.1,71.6,29.97,NW,307,0.0,2.0,70,0.00,,,0.00,WUHU216DAVISVP2,2013-08-23 00:46:00,
2013-08-22 19:51:00,81.8,71.3,29.97,NW,307,0.0,2.0,70,0.00,,,0.00,WUHU216DAVISVP2,2013-08-23 00:51:00,
2013-08-22 19:56:00,81.5,71.0,29.97,NW,307,0.0,1.0,70,0.00,,,0.00,WUHU216DAVISVP2,2013-08-23 00:56:00,
2013-08-22 20:01:00,81.1,71.0,29.97,NW,307,0.0,0.0,71,0.00,,,0.00,WUHU216DAVISVP2,2013-08-23 01:01:00,
2013-08-22 20:06:00,80.8,71.1,29.97,NW,307,0.0,0.0,72,0.00,,,0.00,WUHU216DAVISVP2,2013-08-23 01:06:00,
2013-08-22 20:11:00,80.5,70.8,29.97,NW,307,0.0,0.0,72,0.00,,,0.00,WUHU216DAVISVP2,2013-08-23 01:11:00,
2013-08-22 20:16:00,80.1,70.5,29.97,NW,307,0.0,0.0,72,0.00,,,0.00,WUHU216DAVISVP2,2013-08-23 01:16:00,
2013-08-22 20:21:00,79.9,70.7,29.97,NW,307,0.0,0.0,73,0.00,,,0.00,WUHU216DAVISVP2,2013-08-23 01:21:00,
2013-08-22 20:26:00,79.6,71.1,29.97,NW,307,0.0,0.0,75,0.00,,,0.00,WUHU216DAVISVP2,2013-08-23 01:26:00,
2013-08-22 20:31:00,79.1,70.7,29.97,NW,307,0.0,3.0,75,0.00,,,0.00,WUHU216DAVISVP2,2013-08-23 01:31:00,
2013-08-22 20:36:00,78.7,70.3,29.98,NW,307,0.0,3.0,75,0.00,,,0.00,WUHU216DAVISVP2,2013-08-23 01:36:00,
2013-08-22 20:41:00,78.6,70.1,29.97,NW,307,0.0,3.0,75,0.00,,,0.00,WUHU216DAVISVP2,2013-08-23 01:41:00,
2013-08-22 20:46:00,78.3,69.9,29.97,NW,307,0.0,3.0,75,0.00,,,0.00,WUHU216DAVISVP2,2013-08-23 01:46:00,
2013-08-22 20:51:00,78.1,69.7,29.98,NW,307,0.0,1.0,75,0.00,,,0.00,WUHU216DAVISVP2,2013-08-23 01:51:00,
2013-08-22 20:56:00,78.0,70.0,29.98,NW,307,0.0,0.0,76,0.00,,,0.00,WUHU216DAVISVP2,2013-08-23 01:56:00,
2013-08-22 21:01:00,77.8,69.8,29.98,NW,307,0.0,0.0,76,0.00,,,0.00,WUHU216DAVISVP2,2013-08-23 02:01:00,
2013-08-22 21:06:00,77.6,70.0,29.98,NW,307,1.0,3.0,77,0.00,,,0.00,WUHU216DAVISVP2,2013-08-23 02:06:00,
2013-08-22 21:11:00,77.4,70.1,29.99,NW,307,0.0,3.0,78,0.00,,,0.00,WUHU216DAVISVP2,2013-08-23 02:11:00,
2013-08-22 21:16:00,77.2,69.9,29.99,NW,307,0.0,3.0,78,0.00,,,0.00,WUHU216DAVISVP2,2013-08-23 02:16:00,
2013-08-22 21:21:00,76.9,70.0,29.99,NW,307,0.0,3.0,79,0.00,,,0.00,WUHU216DAVISVP2,2013-08-23 02:21:00,
2013-08-22 21:26:00,76.6,70.1,29.99,NW,307,0.0,0.0,80,0.00,,,0.00,WUHU216DAVISVP2,2013-08-23 02:26:00,
2013-08-22 21:31:00,76.4,70.2,29.99,NW,307,0.0,0.0,81,0.00,,,0.00,WUHU216DAVISVP2,2013-08-23 02:31:00,
2013-08-22 21:36:00,76.2,70.0,29.99,NW,307,0.0,0.0,81,0.00,,,0.00,WUHU216DAVISVP2,2013-08-23 02:36:00,
2013-08-22 21:41:00,75.8,69.7,29.99,NW,307,0.0,0.0,81,0.00,,,0.00,WUHU216DAVISVP2,2013-08-23 02:41:00,
2013-08-22 21:46:00,75.7,69.5,29.99,NW,307,0.0,0.0,81,0.00,,,0.00,WUHU216DAVISVP2,2013-08-23 02:46:00,
2013-08-22 21:51:00,75.5,69.3,29.99,NW,307,0.0,0.0,81,0.00,,,0.00,WUHU216DAVISVP2,2013-08-23 02:51:00,
2013-08-22 21:56:00,75.3,69.5,29.99,NW,307,0.0,0.0,82,0.00,,,0.00,WUHU216DAVISVP2,2013-08-23 02:56:00,
2013-08-22 22:01:00,75.1,69.3,29.99,NW,307,0.0,0.0,82,0.00,,,0.00,WUHU216DAVISVP2,2013-08-23 03:01:00,
2013-08-22 22:06:00,74.8,69.4,29.99,NW,307,0.0,0.0,83,0.00,,,0.00,WUHU216DAVISVP2,2013-08-23 03:06:00,
2013-08-22 22:11:00,74.6,69.1,30.00,NW,307,0.0,0.0,83,0.00,,,0.00,WUHU216DAVISVP2,2013-08-23 03:11:00,
2013-08-22 22:16:00,74.4,68.9,30.00,NW,307,0.0,2.0,83,0.00,,,0.00,WUHU216DAVISVP2,2013-08-23 03:16:00,
2013-08-22 22:21:00,74.1,69.0,30.00,NW,307,0.0,2.0,84,0.00,,,0.00,WUHU216DAVISVP2,2013-08-23 03:21:00,
2013-08-22 22:26:00,73.9,68.8,30.00,NW,307,0.0,2.0,84,0.00,,,0.00,WUHU216DAVISVP2,2013-08-23 03:26:00,
2013-08-22 22:31:00,73.8,68.7,30.00,NW,307,0.0,2.0,84,0.00,,,0.00,WUHU216DAVISVP2,2013-08-23 03:31:00,
2013-08-22 22:36:00,73.7,68.6,30.00,NW,307,0.0,0.0,84,0.00,,,0.00,WUHU216DAVISVP2,2013-08-23 03:36:00,
2013-08-22 22:41:00,73.6,68.5,30.00,NW,307,0.0,0.0,84,0.00,,,0.00,WUHU216DAVISVP2,2013-08-23 03:41:00,
2013-08-22 22:46:00,73.4,68.7,30.00,NW,307,0.0,0.0,85,0.00,,,0.00,WUHU216DAVISVP2,2013-08-23 03:46:00,
2013-08-22 22:51:00,73.3,68.6,30.00,NW,307,0.0,0.0,85,0.00,,,0.00,WUHU216DAVISVP2,2013-08-23 03:51:00,
2013-08-22 22:56:00,73.1,68.7,30.01,NW,307,0.0,0.0,86,0.00,,,0.00,WUHU216DAVISVP2,2013-08-23 03:56:00,
2013-08-22 23:01:00,73.0,68.6,30.01,NW,307,0.0,1.0,86,0.00,,,0.00,WUHU216DAVISVP2,2013-08-23 04:01:00,
2013-08-22 23:06:00,72.8,68.4,30.00,NW,307,0.0,1.0,86,0.00,,,0.00,WUHU216DAVISVP2,2013-08-23 04:06:00,
2013-08-22 23:11:00,72.7,68.3,30.01,NW,307,0.0,1.0,86,0.00,,,0.00,WUHU216DAVISVP2,2013-08-23 04:11:00,
2013-08-22 23:16:00,72.5,68.5,30.01,NW,307,0.0,1.0,87,0.00,,,0.00,WUHU216DAVISVP2,2013-08-23 04:16:00,
2013-08-22 23:21:00,72.4,68.4,30.01,NW,307,0.0,0.0,87,0.00,,,0.00,WUHU216DAVISVP2,2013-08-23 04:21:00,
2013-08-22 23:26:00,72.2,68.1,30.01,NW,307,0.0,0.0,87,0.00,,,0.00,WUHU216DAVISVP2,2013-08-23 04:26:00,
2013-08-22 23:31:00,72.1,68.4,30.01,NW,307,0.0,0.0,88,0.00,,,0.00,WUHU216DAVISVP2,2013-08-23 04:31:00,
2013-08-22 23:36:00,72.0,68.2,30.01,NW,307,0.0,0.0,88,0.00,,,0.00,WUHU216DAVISVP2,2013-08-23 04:36:00,
2013-08-22 23:41:00,71.9,68.1,30.01,NW,307,0.0,0.0,88,0.00,,,0.00,WUHU216DAVISVP2,2013-08-23 04:41:00,
2013-08-22 23:46:00,71.9,68.1,30.01,NW,307,0.0,0.0,88,0.00,,,0.00,WUHU216DAVISVP2,2013-08-23 04:46:00,
2013-08-22 23:51:00,71.8,68.0,30.01,NW,307,0.0,0.0,88,0.00,,,0.00,WUHU216DAVISVP2,2013-08-23 04:51:00,
2013-08-22 23:56:00,71.7,67.9,30.01,NW,307,0.0,0.0,88,0.00,,,0.00,WUHU216DAVISVP2,2013-08-23 04:56:00,